Content
SEND FEEDBACK

Daily
Averages
Monthly
Summary
United States of America

MERIZO, GUAM


Home > North America > United States > Guam
Elevation: 10 feet     Latitude: 13 14N     Longitude: 144 39E

WEATHER
 
SELECT A DAY
Number of Records: 352,394;   Date Range: 1/1/95 - 10/29/14
 
SHARE

PRINT THIS DATA

[ ← Previous Day ]
WEATHER ALMANAC - JULY 13, 2014
[ Next Day → ]
[ °C ]   °F
Weather ElementAverageHighLow
Temperature81.3 °F84.7 °F (10:58 am)78.8 °F (4:03 am)
Dewpoint76.7 °F78.8 °F (8:53 am)74.5 °F (7:58 pm)
Humidity86 %92 % (3:58 am)71 % (10:58 am)
Barometer29.82 in29.87 in (1:23 am)29.75 in (2:58 am)
Wind Speed6.4 mph12.7 mph (1:28 am)
Weather ElementAverage
Visibility9 mi
Wind DirectionESE (106 °)

Weather ElementTotal
Precipitation0.10 in
Cooling Degree Days16.8 (Base 65)
Growing Degree Days31.8 (Base 50)
Averaged from 60 records on July 13, 2014
WEATHER CONDITIONS BREAKOUT
WIND DIRECTION BREAKOUT
WEATHER BY HOUR - JULY 13, 2014
[ °C ]   °F
Local TimeTemperatureDewpointHumidityBarometerVisibilityWind DirectionWind SpeedGust SpeedPrecipitationEventsConditions
9:13 AM82.4 °F77.0 °F84 %29.86 in10.0 miSE (130°)6.9 mphMostly Cloudy
9:13 AM82.4 °F77.0 °F84 %29.86 in10.0 miSE (130°)6.9 mphMostly Cloudy
9:18 AM82.4 °F77.0 °F84 %29.86 in10.0 miSE (140°)6.9 mphScattered Clouds
9:18 AM82.4 °F77.0 °F84 %29.86 in10.0 miSE (140°)6.9 mphScattered Clouds
10:29 AM82.4 °F77.0 °F84 %29.86 in8.0 miSE (130°)5.8 mphRainLight Rain
10:29 AM82.4 °F77.0 °F84 %29.86 in8.0 miSE (130°)5.8 mphRainLight Rain
10:34 AM80.6 °F77.0 °F89 %29.86 in5.0 miSE (130°)5.8 mphRainLight Rain
10:34 AM80.6 °F77.0 °F89 %29.86 in5.0 miSE (130°)5.8 mphRainLight Rain
10:54 AM80.6 °F77.0 °F89 %29.85 in4.0 miESE (110°)2.3 mphRainLight Rain
10:54 AM80.6 °F77.0 °F89 %29.85 in4.0 miESE (110°)2.3 mphRainLight Rain
10:58 AM80.2 °F76.3 °F88 %29.82 in5.0 miVariable2.3 mph0.02 inRainLight Rain
10:58 AM80.2 °F76.3 °F88 %29.82 in5.0 miVariable2.3 mph0.02 inRainLight Rain
11:00 AM80.6 °F77.0 °F89 %29.85 in9.0 miVariable3.5 mphScattered Clouds
11:00 AM80.6 °F77.0 °F89 %29.85 in9.0 miVariable3.5 mphScattered Clouds
11:58 AM83.7 °F76.3 °F78 %29.81 in10.0 miESE (110°)5.8 mph0.00 inScattered Clouds
11:58 AM83.7 °F76.3 °F78 %29.81 in10.0 miESE (110°)5.8 mph0.00 inScattered Clouds
12:58 PM84.7 °F74.5 °F71 %29.79 in10.0 miSE (130°)6.9 mphMostly Cloudy
12:58 PM84.7 °F74.5 °F71 %29.79 in10.0 miSE (130°)6.9 mphMostly Cloudy
1:58 PM84.0 °F76.6 °F78 %29.78 in10.0 miSSE (160°)10.4 mphScattered Clouds
1:58 PM84.0 °F76.6 °F78 %29.78 in10.0 miSSE (160°)10.4 mphScattered Clouds
2:01 PM84.2 °F77.0 °F79 %29.81 in9.0 miSE (140°)12.7 mphRainLight Rain
2:01 PM84.2 °F77.0 °F79 %29.81 in9.0 miSE (140°)12.7 mphRainLight Rain
2:06 PM82.4 °F78.8 °F89 %29.81 in4.0 miSE (140°)9.2 mphRainRain
2:06 PM82.4 °F78.8 °F89 %29.81 in4.0 miSE (140°)9.2 mphRainRain
2:19 PM82.4 °F77.0 °F84 %29.81 in10.0 miEast (100°)8.1 mphMostly Cloudy
2:19 PM82.4 °F77.0 °F84 %29.81 in10.0 miEast (100°)8.1 mphMostly Cloudy
2:24 PM82.4 °F77.0 °F84 %29.81 in10.0 miSE (140°)8.1 mphScattered Clouds
2:24 PM82.4 °F77.0 °F84 %29.81 in10.0 miSE (140°)8.1 mphScattered Clouds
2:29 PM82.4 °F77.0 °F84 %29.81 in10.0 miSE (140°)10.4 mphRainLight Rain
2:29 PM82.4 °F77.0 °F84 %29.81 in10.0 miSE (140°)10.4 mphRainLight Rain
2:40 PM80.6 °F77.0 °F89 %29.81 in6.0 miESE (120°)5.8 mphPartly Cloudy
2:40 PM80.6 °F77.0 °F89 %29.81 in6.0 miESE (120°)5.8 mphPartly Cloudy
2:58 PM81.9 °F75.4 °F81 %29.78 in10.0 miESE (110°)6.9 mph0.02 inPartly Cloudy
2:58 PM81.9 °F75.4 °F81 %29.78 in10.0 miESE (110°)6.9 mph0.02 inPartly Cloudy
3:58 PM81.3 °F75.4 °F82 %29.76 in10.0 miEast (100°)4.6 mph0.00 inRainLight Rain
3:58 PM81.3 °F75.4 °F82 %29.76 in10.0 miEast (100°)4.6 mph0.00 inRainLight Rain
4:52 PM80.6 °F77.0 °F89 %29.78 in10.0 miEast (90°)4.6 mphPartly Cloudy
4:52 PM80.6 °F77.0 °F89 %29.78 in10.0 miEast (90°)4.6 mphPartly Cloudy
4:58 PM80.1 °F76.1 °F88 %29.75 in10.0 miEast (90°)4.6 mph0.01 inPartly Cloudy
4:58 PM80.1 °F76.1 °F88 %29.75 in10.0 miEast (90°)4.6 mph0.01 inPartly Cloudy
5:58 PM80.2 °F76.8 °F89 %29.76 in10.0 miEast (90°)3.5 mphPartly Cloudy
5:58 PM80.2 °F76.8 °F89 %29.76 in10.0 miEast (90°)3.5 mphPartly Cloudy
6:58 PM79.2 °F76.6 °F92 %29.78 in10.0 miEast (90°)4.6 mphScattered Clouds
6:58 PM79.2 °F76.6 °F92 %29.78 in10.0 miEast (90°)4.6 mphScattered Clouds
7:58 PM78.8 °F75.6 °F90 %29.81 in10.0 miEast (100°)4.6 mphClear
7:58 PM78.8 °F75.6 °F90 %29.81 in10.0 miEast (100°)4.6 mphClear
8:58 PM79.0 °F75.9 °F90 %29.81 in10.0 miESE (110°)5.8 mphClear
8:58 PM79.0 °F75.9 °F90 %29.81 in10.0 miESE (110°)5.8 mphClear
9:58 PM80.6 °F77.0 °F89 %29.83 in10.0 miEast (100°)6.9 mphMostly Cloudy
9:58 PM80.6 °F77.0 °F89 %29.83 in10.0 miEast (100°)6.9 mphMostly Cloudy
10:03 PM80.6 °F77.0 °F89 %29.86 in10.0 miEast (100°)6.9 mphMostly Cloudy
10:03 PM80.6 °F77.0 °F89 %29.86 in10.0 miEast (100°)6.9 mphMostly Cloudy
10:43 PM80.6 °F77.0 °F89 %29.87 in10.0 miEast (100°)5.8 mphMostly Cloudy
10:43 PM80.6 °F77.0 °F89 %29.87 in10.0 miEast (100°)5.8 mphMostly Cloudy
10:48 PM80.6 °F77.0 °F89 %29.87 in10.0 miEast (100°)5.8 mphScattered Clouds
10:48 PM80.6 °F77.0 °F89 %29.87 in10.0 miEast (100°)5.8 mphScattered Clouds
10:58 PM79.9 °F77.2 °F91 %29.84 in10.0 miEast (90°)8.1 mphScattered Clouds
10:58 PM79.9 °F77.2 °F91 %29.84 in10.0 miEast (90°)8.1 mphScattered Clouds
11:58 PM79.5 °F76.5 °F90 %29.83 in10.0 miEast (90°)8.1 mphScattered Clouds
11:58 PM79.5 °F76.5 °F90 %29.83 in10.0 miEast (90°)8.1 mphScattered Clouds
Hourly data recorded from PGUA, located miles away from Merizo, Guam







STORIES FROM OUR PARTNERS